When you browse on this site, cookies collect data to enhance your experience and personalize the content and advertising you see.
Visit our Privacy Policy to learn more. By continuing to use the site, you agree to this use of cookies and data.
  • In Schweiz
  • Länderverzeichnis
  • Für 7 Tage
  • Wassertemperatur
  • Satellitenkarten
  • Wetterkarte
  • Widgets
  • user-avatar
    Anmelden

    Stündliche Wetter Serhiivs'ke

    Heute, 21 Februar, Donnerstag

    Zeit Temperatur Niederschläge Wind Luftdruck Luftfeuchtigkeit
    00:00 +1°C° 0 mm 4 m/S 751 mmHg 86%
    01:00 0°C° 0 mm 4 m/S 751 mmHg 87%
    02:00 0°C° 0 mm 4 m/S 751 mmHg 88%
    03:00 0°C° 0 mm 5 m/S 751 mmHg 88%
    04:00 0°C° 0 mm 5 m/S 751 mmHg 88%
    05:00 0°C° 0 mm 5 m/S 751 mmHg 87%
    06:00 0°C° 0 mm 5 m/S 751 mmHg 85%
    07:00 -1°C° 0 mm 6 m/S 751 mmHg 83%
    08:00 -1°C° 0 mm 6 m/S 752 mmHg 81%
    09:00 0°C° 0 mm 7 m/S 752 mmHg 73%
    10:00 +1°C° 0 mm 8 m/S 752 mmHg 66%
    11:00 +1°C° 0 mm 8 m/S 752 mmHg 58%
    12:00 +1°C° 0 mm 8 m/S 752 mmHg 54%
    13:00 +2°C° 0 mm 8 m/S 752 mmHg 50%
    14:00 +2°C° 0 mm 8 m/S 752 mmHg 47%
    15:00 +2°C° 0 mm 7 m/S 752 mmHg 48%
    16:00 +2°C° 0 mm 6 m/S 753 mmHg 49%
    17:00 +2°C° 0 mm 5 m/S 753 mmHg 50%
    18:00 +1°C° 0 mm 4 m/S 753 mmHg 55%
    19:00 +1°C° 0 mm 3 m/S 753 mmHg 59%
    20:00 +1°C° 0 mm 3 m/S 753 mmHg 63%
    21:00 0°C° 0 mm 3 m/S 753 mmHg 65%
    22:00 +1°C° 0 mm 2 m/S 754 mmHg 68%
    23:00 -1°C° 0 mm 2 m/S 754 mmHg 70%

    Morgen, 22 Februar, Freitag

    Zeit Temperatur Niederschläge Wind Luftdruck Luftfeuchtigkeit
    00:00 -1°C° 0 mm 2 m/S 754 mmHg 71%
    01:00 -1°C° 0 mm 2 m/S 754 mmHg 71%
    02:00 +1°C° 0 mm 1 m/S 754 mmHg 71%
    03:00 +1°C° 0 mm 1 m/S 753 mmHg 71%
    04:00 +1°C° 0 mm 1 m/S 753 mmHg 70%
    05:00 +1°C° 0 mm 1 m/S 752 mmHg 70%
    06:00 -2°C° 0.4 mm 2 m/S 752 mmHg 76%
    07:00 -2°C° 0.4 mm 3 m/S 752 mmHg 82%
    08:00 -4°C° 0.4 mm 4 m/S 752 mmHg 88%
    09:00 -4°C° 0.8 mm 4 m/S 752 mmHg 88%
    10:00 -6°C° 0.8 mm 5 m/S 752 mmHg 88%
    11:00 -6°C° 0.8 mm 6 m/S 752 mmHg 88%
    12:00 -8°C° 0.7 mm 6 m/S 753 mmHg 87%
    13:00 -8°C° 0.7 mm 6 m/S 753 mmHg 87%
    14:00 -8°C° 0.7 mm 7 m/S 753 mmHg 86%
    15:00 -9°C° 0.2 mm 7 m/S 753 mmHg 81%
    16:00 -9°C° 0.2 mm 7 m/S 754 mmHg 76%
    17:00 -9°C° 0.2 mm 7 m/S 754 mmHg 71%
    18:00 -11°C° 0 mm 7 m/S 755 mmHg 72%
    19:00 -12°C° 0 mm 7 m/S 756 mmHg 73%
    20:00 -12°C° 0 mm 6 m/S 756 mmHg 74%
    21:00 -12°C° 0 mm 6 m/S 757 mmHg 74%
    22:00 -12°C° 0 mm 6 m/S 757 mmHg 74%
    23:00 -12°C° 0 mm 6 m/S 757 mmHg 75%

    übermorgen, 23 Februar, Samstag

    Zeit Temperatur Niederschläge Wind Luftdruck Luftfeuchtigkeit
    00:00 -12°C° 0 mm 6 m/S 758 mmHg 75%
    01:00 -12°C° 0 mm 6 m/S 758 mmHg 76%
    02:00 -13°C° 0 mm 5 m/S 758 mmHg 76%
    03:00 -14°C° 0 mm 6 m/S 758 mmHg 78%
    04:00 -14°C° 0 mm 6 m/S 759 mmHg 79%
    05:00 -14°C° 0 mm 6 m/S 759 mmHg 80%
    06:00 -12°C° 0 mm 6 m/S 759 mmHg 79%
    07:00 -13°C° 0 mm 7 m/S 760 mmHg 77%
    08:00 -13°C° 0 mm 7 m/S 760 mmHg 76%
    09:00 -13°C° 0 mm 7 m/S 761 mmHg 74%
    10:00 -12°C° 0 mm 7 m/S 761 mmHg 72%
    11:00 -12°C° 0 mm 8 m/S 761 mmHg 70%
    12:00 -11°C° 0 mm 7 m/S 761 mmHg 69%
    13:00 -11°C° 0 mm 7 m/S 761 mmHg 69%
    14:00 -11°C° 0 mm 7 m/S 761 mmHg 68%
    15:00 -11°C° 0 mm 7 m/S 762 mmHg 70%
    16:00 -11°C° 0 mm 7 m/S 762 mmHg 71%
    17:00 -11°C° 0 mm 6 m/S 762 mmHg 73%
    18:00 -11°C° 0 mm 6 m/S 762 mmHg 75%
    19:00 -11°C° 0 mm 6 m/S 763 mmHg 77%
    20:00 -12°C° 0 mm 5 m/S 763 mmHg 78%
    21:00 -12°C° 0 mm 5 m/S 763 mmHg 79%
    22:00 -12°C° 0 mm 5 m/S 763 mmHg 80%
    23:00 -11°C° 0 mm 4 m/S 763 mmHg 81%

    24 Februar, Sonntag

    Zeit Temperatur Niederschläge Wind Luftdruck Luftfeuchtigkeit
    00:00 -11°C° 0 mm 4 m/S 763 mmHg 82%
    01:00 -11°C° 0 mm 4 m/S 763 mmHg 82%
    02:00 -11°C° 0 mm 4 m/S 763 mmHg 83%
    03:00 -11°C° 0 mm 4 m/S 763 mmHg 83%
    04:00 -11°C° 0 mm 4 m/S 763 mmHg 83%
    05:00 -11°C° 0 mm 4 m/S 763 mmHg 82%
    06:00 -12°C° 0 mm 5 m/S 763 mmHg 82%
    07:00 -12°C° 0 mm 5 m/S 763 mmHg 81%
    08:00 -12°C° 0 mm 5 m/S 763 mmHg 81%
    09:00 -12°C° 0 mm 5 m/S 763 mmHg 79%
    10:00 -11°C° 0 mm 5 m/S 763 mmHg 77%
    11:00 -10°C° 0 mm 5 m/S 763 mmHg 75%
    12:00 -10°C° 0 mm 5 m/S 762 mmHg 74%
    13:00 -8°C° 0 mm 4 m/S 762 mmHg 73%
    14:00 -8°C° 0 mm 4 m/S 762 mmHg 73%
    15:00 -8°C° 0 mm 4 m/S 761 mmHg 73%
    16:00 -8°C° 0 mm 4 m/S 761 mmHg 73%
    17:00 -7°C° 0 mm 3 m/S 761 mmHg 73%
    18:00 -7°C° 0 mm 3 m/S 761 mmHg 76%
    19:00 -7°C° 0 mm 2 m/S 761 mmHg 78%
    20:00 -7°C° 0 mm 1 m/S 761 mmHg 81%
    21:00 -7°C° 0 mm 1 m/S 761 mmHg 81%
    22:00 -7°C° 0 mm 1 m/S 761 mmHg 82%
    23:00 -8°C° 0 mm 1 m/S 760 mmHg 82%

    25 Februar, Montag

    Zeit Temperatur Niederschläge Wind Luftdruck Luftfeuchtigkeit
    00:00 -8°C° 0 mm 1 m/S 760 mmHg 82%
    01:00 -8°C° 0 mm 1 m/S 760 mmHg 82%
    02:00 -8°C° 0 mm 1 m/S 759 mmHg 83%
    03:00 -8°C° 0 mm 1 m/S 759 mmHg 84%
    04:00 -8°C° 0 mm 1 m/S 758 mmHg 85%
    05:00 -8°C° 0 mm 1 m/S 757 mmHg 87%
    06:00 -7°C° 0 mm 1 m/S 757 mmHg 87%
    07:00 -7°C° 0 mm 0 m/S 757 mmHg 87%
    08:00 -6°C° 0 mm 0 m/S 757 mmHg 88%
    09:00 -5°C° 0 mm 0 m/S 757 mmHg 85%
    10:00 -4°C° 0 mm 0 m/S 756 mmHg 83%
    11:00 -2°C° 0 mm 1 m/S 756 mmHg 81%
    12:00 -2°C° 0 mm 1 m/S 755 mmHg 78%
    13:00 -1°C° 0 mm 1 m/S 755 mmHg 76%
    14:00 -1°C° 0 mm 1 m/S 754 mmHg 73%
    15:00 -1°C° 0 mm 1 m/S 754 mmHg 75%
    16:00 -1°C° 0 mm 1 m/S 753 mmHg 77%
    17:00 -1°C° 0 mm 1 m/S 753 mmHg 79%
    18:00 -1°C° 0.1 mm 1 m/S 753 mmHg 82%
    19:00 -1°C° 0.1 mm 1 m/S 752 mmHg 86%
    20:00 -1°C° 0.1 mm 1 m/S 752 mmHg 90%
    21:00 -3°C° 0.4 mm 2 m/S 752 mmHg 92%
    22:00 -3°C° 0.4 mm 2 m/S 752 mmHg 93%
    23:00 -2°C° 0.4 mm 3 m/S 751 mmHg 95%

    26 Februar, Dienstag

    Zeit Temperatur Niederschläge Wind Luftdruck Luftfeuchtigkeit
    00:00 -4°C° 0.1 mm 5 m/S 751 mmHg 91%
    01:00 -4°C° 0.1 mm 6 m/S 751 mmHg 87%
    02:00 -4°C° 0.1 mm 8 m/S 751 mmHg 83%
    03:00 -5°C° 0 mm 8 m/S 751 mmHg 84%
    04:00 -4°C° 0 mm 7 m/S 751 mmHg 84%
    05:00 -6°C° 0 mm 7 m/S 751 mmHg 84%
    06:00 -6°C° 0 mm 7 m/S 751 mmHg 85%
    07:00 -5°C° 0 mm 6 m/S 751 mmHg 87%
    08:00 -5°C° 0 mm 6 m/S 751 mmHg 88%
    09:00 -4°C° 0 mm 6 m/S 750 mmHg 85%
    10:00 -3°C° 0 mm 6 m/S 750 mmHg 83%
    11:00 -3°C° 0 mm 6 m/S 750 mmHg 81%
    12:00 -2°C° 0 mm 6 m/S 749 mmHg 81%
    13:00 -1°C° 0 mm 5 m/S 749 mmHg 80%
    14:00 -1°C° 0 mm 5 m/S 749 mmHg 79%
    15:00 -1°C° 0.1 mm 4 m/S 748 mmHg 81%
    16:00 -1°C° 0.1 mm 4 m/S 748 mmHg 84%
    17:00 -1°C° 0.1 mm 4 m/S 748 mmHg 86%
    18:00 -1°C° 0 mm 4 m/S 747 mmHg 87%
    19:00 -2°C° 0 mm 4 m/S 747 mmHg 87%
    20:00 -2°C° 0 mm 5 m/S 747 mmHg 88%
    21:00 -2°C° 0 mm 5 m/S 746 mmHg 88%
    22:00 -2°C° 0 mm 5 m/S 745 mmHg 89%
    23:00 -2°C° 0 mm 5 m/S 744 mmHg 89%
    Mehr zeigen